[[{"header":{"parameterUnit":"m.s-1","parameterCategory":1,"la1":30.2991,"la2":30.254,"lo1":-89.0895,"lo2":-89.0444,"dy":0.0017,"dx":0.0017,"nx":28,"ny":28,"refTime":"2025-01-12T09:00:00:Z","depth":0,"parameterNumber":2,"parameterNumberName":"U-component_of_WINDS"},"data":[0,0,0,0,0,0,0,0,0,0,0,0,0,0,0,0,0,0,0,0,0,0,0,0,0,0,0,0,0,0,0,0,0,0,0,0,0,0,0,0,0,0,0,0,0,0,0,0,0,0,0,0,0,0,0,0,0,0,-5.1717,-5.1717,0,-5.1726,-5.1726,-5.1726,-5.1599,-5.1595,-5.1592,-5.1589,-5.1602,-5.1605,-5.1609,0,0,0,0,0,0,0,0,0,0,0,0,0,-5.159,-5.1593,-5.1717,-5.1717,-5.1717,-5.1726,-5.1726,-5.1726,-5.16,-5.1595,-5.1591,-5.1587,-5.1601,-5.1605,-5.1609,0,0,0,0,0,0,0,0,0,0,0,0,0,-5.1627,-5.1594,-5.1717,-5.1655,-5.1649,-5.1726,-5.1726,-5.1726,-5.16,-5.1595,-5.159,-5.1585,-5.1599,-5.1605,-5.161,-5.1748,0,0,-5.1626,-5.1629,0,0,0,0,0,0,0,0,-5.1625,-5.1632,-5.1664,-5.1659,-5.1653,-5.1656,-5.1686,-5.1734,-5.1602,-5.1619,-5.1589,-5.1583,-5.1624,-5.1627,-5.1641,-5.1748,-5.1749,-5.1627,-5.163,-5.1632,-5.1634,0,0,0,0,0,0,0,-5.1623,-5.1631,-5.172,-5.1664,-5.1658,-5.1627,-5.1626,-5.1695,-5.1651,-5.1617,-5.1608,-5.1611,-5.162,-5.1636,-5.164,-5.1749,-5.1627,-5.1631,-5.1635,-5.1637,-5.1966,-5.1971,0,0,0,0,0,0,-5.1628,-5.1629,-5.172,-5.1721,-5.1626,-5.1633,-5.1633,-5.166,-5.165,-5.1643,-5.1615,-5.1605,-5.1629,-5.1634,-5.164,-5.1797,-5.1632,-5.1637,-5.1641,-5.1961,-5.1967,-5.1973,0,0,0,0,0,0,-5.1626,-5.1637,-5.172,-5.1673,-5.1681,-5.1641,-5.1673,-5.1663,-5.1678,-5.1648,-5.164,-5.1639,-5.1625,-5.1632,-5.1721,-5.1796,-5.164,-5.1645,-5.1954,-5.1963,-5.197,-5.2115,0,0,0,0,0,0,-5.1623,-5.1637,-5.1689,-5.1675,-5.1684,-5.18,-5.1678,-5.1667,-5.1688,-5.1674,-5.1668,-5.1662,-5.1622,-5.1713,-5.1726,-5.18,-5.1649,-5.1947,-5.1958,-5.1968,-5.2103,-5.2127,-5.2147,0,0,0,0,0,-5.1619,-5.1731,-5.1693,-5.1704,-5.1748,-5.1805,-5.181,-5.176,-5.1694,-5.1746,-5.1726,-5.1662,-5.1786,-5.1723,-5.1737,-5.1814,-5.1942,-5.1955,-5.1967,-5.2093,-5.2122,-5.2147,0,0,0,0,0,0,-5.1758,-5.1728,-5.1685,-5.1796,-5.1804,-5.1783,-5.1847,-5.1793,-5.1821,-5.1807,-5.1745,-5.1745,-5.1843,-5.1838,-5.1768,-5.1945,-5.1853,-5.1868,-5.1944,-5.1971,-5.1993,-5.1991,-5.1653,0,0,0,0,0,-5.1802,-5.185,-5.1822,-5.1923,-5.1928,-5.1888,-5.1911,-5.1871,-5.1877,-5.188,-5.1867,-5.1876,-5.1916,-5.1944,-5.198,-5.2103,-5.2098,-5.2162,-5.2184,-5.2203,-5.2216,-5.2277,-5.2304,-5.2014,-5.2014,-5.2014,0,0,-5.1892,-5.1882,-5.1917,-5.195,-5.1951,-5.2002,-5.1891,-5.1951,-5.1988,-5.189,-5.197,-5.1961,-5.1967,-5.2072,-5.2118,-5.2071,-5.2295,-5.2219,-5.2233,-5.2237,-5.2292,-5.232,-5.2344,-5.2022,-5.2021,-5.202,0,0,-5.2082,-5.2081,-5.2162,-5.2165,-5.2167,-5.2139,-5.2159,-5.2146,-5.2135,-5.2215,-5.2141,-5.2185,-5.2257,-5.2263,-5.2275,-5.2465,-5.2406,-5.2479,-5.2594,-5.2654,-5.2676,-5.2696,-5.276,-5.2784,-5.2493,-5.2494,-5.2494,0,-5.2194,-5.2267,-5.2211,-5.2274,-5.229,-5.2202,-5.2283,-5.2289,-5.2305,-5.2317,-5.2265,-5.235,-5.2349,-5.2451,-5.2497,-5.2512,-5.2531,-5.2478,-5.2678,-5.2697,-5.2715,-5.2775,-5.2799,-5.2502,-5.2501,-5.25,-5.2499,0,-5.2403,-5.2455,-5.2521,-5.2534,-5.2558,-5.263,-5.2585,-5.2616,-5.2574,-5.2552,-5.2633,-5.2627,-5.2658,-5.2681,-5.2643,-5.2778,-5.2748,-5.2688,-5.2593,-5.2752,-5.2807,-5.283,-5.2514,-5.2511,-5.2509,-5.2507,0,0,-5.2681,-5.266,-5.2685,-5.2688,-5.2683,-5.2722,-5.2791,-5.2819,-5.2845,-5.2859,-5.2912,-5.2974,-5.2917,-5.2931,-5.2893,-5.2946,-5.3092,-5.2878,-5.2877,-5.2915,-5.3237,-5.3279,-5.3307,-5.3054,-5.3059,-5.3062,-5.3235,0,-5.2862,-5.2974,-5.2924,-5.3042,-5.3087,-5.3004,-5.3062,-5.3066,-5.3046,-5.3082,-5.3061,-5.3104,-5.3028,-5.3035,-5.3084,-5.3064,-5.3155,-5.3051,-5.3102,-5.3104,-5.3099,-5.3336,-5.3382,-5.3545,-5.3256,-5.326,-5.3263,0,-5.3088,-5.3107,-5.3228,-5.3211,-5.3229,-5.3282,-5.3302,-5.3339,-5.3341,-5.3322,-5.3338,-5.3286,-5.3351,-5.3259,-5.3346,-5.3277,-5.3295,-5.3288,-5.3293,-5.3293,-5.319,-5.3339,-5.3596,-5.3619,-5.3297,-5.3294,-5.3292,0,-5.3272,-5.3329,-5.3407,-5.3414,-5.3398,-5.3437,-5.3432,-5.3429,-5.3448,-5.3467,-5.3478,-5.3506,-5.352,-5.3543,-5.35,-5.3438,-5.3592,-5.3497,-5.3576,-5.3578,-5.361,-5.3608,-5.387,-5.3629,-5.3629,-5.3628,-5.3628,0,-5.3477,-5.3554,-5.3489,-5.3537,-5.362,-5.3563,-5.3647,-5.3633,-5.3631,-5.3674,-5.3606,-5.3649,-5.3591,-5.3628,-5.3596,-5.367,-5.3679,-5.3665,-5.3654,-5.3668,-5.367,-5.3677,-5.3663,-5.3635,-5.3633,-5.3632,-5.3631,0,-5.3696,-5.3656,-5.3735,-5.3713,-5.3709,-5.3771,-5.3751,-5.3795,-5.377,-5.3826,-5.3836,-5.3798,-5.3838,-5.3798,-5.3837,-5.3814,-5.3913,-5.3889,-5.3912,-5.3903,-5.3983,-5.3974,-5.4255,-5.4287,-5.403,-5.4033,-5.4035,0,-5.3827,-5.3883,-5.3866,-5.3889,-5.3887,-5.3927,-5.3945,-5.3891,-5.3913,-5.3918,-5.3961,-5.3994,-5.4018,-5.4085,-5.4061,-5.4089,-5.4062,-5.4159,-5.4066,-5.4077,-5.4058,-5.4054,-5.4057,-5.4177,-5.418,-5.4183,-5.4185,0,-5.4063,-5.404,-5.4068,-5.4089,-5.4112,-5.4126,-5.4136,-5.4159,-5.4103,-5.4132,-5.417,-5.4188,-5.4226,-5.4259,-5.428,-5.4275,-5.422,-5.4215,-5.4233,-5.4246,-5.4255,-5.4246,-5.3958,-5.4207,-5.4205,-5.4203,-5.4202,-5.4201,-5.4238,-5.4283,-5.4276,-5.4309,-5.431,-5.4319,-5.4357,-5.4336,-5.4367,-5.4391,-5.4359,-5.4405,-5.4404,-5.4425,-5.4428,-5.4463,-5.4422,-5.4451,-5.4457,-5.4464,-5.4474,-5.4253,-5.4468,-5.4467,-5.4466,-5.4466,-5.4465,0,-5.4466,-5.4457,-5.4488,-5.4501,-5.4527,-5.4472,-5.4479,-5.4504,-5.4545,-5.4548,-5.4572,-5.4615,-5.4646,-5.4625,-5.4651,-5.4684,-5.4659,-5.4692,-5.4687,-5.4686,-5.4511,-5.449,-5.4711,-5.4711,-5.4711,-5.4711,-5.4711,-5.4711,-5.4587,-5.4657,-5.4634,-5.4703,-5.4694,-5.4737,-5.4745,-5.4753,-5.4754,-5.4805,-5.4829,-5.4815,-5.4807,-5.4832,-5.4858,-5.4851,-5.4862,-5.4903,-5.4887,-5.4723,-5.4699,-5.4676,-5.4655,-5.4907,-5.4908,-5.5057,-5.5059,-5.506]},{"header":{"parameterUnit":"m.s-1","parameterCategory":1,"la1":30.2991,"la2":30.254,"lo1":-89.0895,"lo2":-89.0444,"dy":0.0017,"dx":0.0017,"nx":28,"ny":28,"refTime":"2025-01-12T09:00:00:Z","depth":0,"parameterNumber":3,"parameterNumberName":"V-component_of_WINDS"},"data":[0,0,0,0,0,0,0,0,0,0,0,0,0,0,0,0,0,0,0,0,0,0,0,0,0,0,0,0,0,0,0,0,0,0,0,0,0,0,0,0,0,0,0,0,0,0,0,0,0,0,0,0,0,0,0,0,0,0,-1.35,-1.35,0,-1.3455,-1.3455,-1.3454,-1.3456,-1.3457,-1.3457,-1.3458,-1.3409,-1.3408,-1.3406,0,0,0,0,0,0,0,0,0,0,0,0,0,-1.3583,-1.3582,-1.35,-1.35,-1.3499,-1.3455,-1.3455,-1.3454,-1.3456,-1.3457,-1.3458,-1.3458,-1.341,-1.3408,-1.3406,0,0,0,0,0,0,0,0,0,0,0,0,0,-1.3544,-1.3581,-1.35,-1.3495,-1.3494,-1.3455,-1.3455,-1.3454,-1.3456,-1.3457,-1.3458,-1.3459,-1.3411,-1.3408,-1.3405,-1.3369,0,0,-1.3397,-1.3395,0,0,0,0,0,0,0,0,-1.3546,-1.3541,-1.3496,-1.3495,-1.3494,-1.3462,-1.3466,-1.3425,-1.3456,-1.347,-1.3458,-1.3459,-1.3426,-1.3422,-1.3411,-1.3366,-1.3364,-1.3396,-1.3395,-1.3393,-1.3393,0,0,0,0,0,0,0,-1.3549,-1.3542,-1.3482,-1.3496,-1.3494,-1.3493,-1.3489,-1.3458,-1.3443,-1.3469,-1.3469,-1.3464,-1.3426,-1.3414,-1.341,-1.3363,-1.3396,-1.3394,-1.3392,-1.3391,-1.3281,-1.328,0,0,0,0,0,0,-1.3553,-1.3545,-1.3484,-1.3481,-1.3523,-1.3491,-1.3486,-1.3472,-1.3444,-1.344,-1.3463,-1.3464,-1.3419,-1.3414,-1.3409,-1.336,-1.3393,-1.3391,-1.3389,-1.3282,-1.328,-1.3279,0,0,0,0,0,0,-1.3555,-1.3548,-1.3486,-1.3513,-1.3505,-1.3488,-1.3472,-1.347,-1.3459,-1.3439,-1.3436,-1.3454,-1.3419,-1.3413,-1.3378,-1.3359,-1.339,-1.3387,-1.3283,-1.3281,-1.328,-1.3266,0,0,0,0,0,0,-1.3557,-1.3548,-1.3536,-1.3513,-1.3504,-1.3457,-1.3471,-1.3469,-1.3454,-1.3455,-1.343,-1.3427,-1.3419,-1.3382,-1.3375,-1.3355,-1.3385,-1.3285,-1.3283,-1.328,-1.3268,-1.3263,-1.326,0,0,0,0,0,-1.356,-1.3534,-1.3535,-1.3528,-1.3487,-1.3456,-1.345,-1.3443,-1.3453,-1.3438,-1.3425,-1.3428,-1.3362,-1.3378,-1.337,-1.335,-1.3286,-1.3283,-1.3281,-1.3269,-1.3264,-1.326,0,0,0,0,0,0,-1.3555,-1.3531,-1.3532,-1.3498,-1.3479,-1.3456,-1.3439,-1.3439,-1.3416,-1.3418,-1.3409,-1.3403,-1.3367,-1.3355,-1.3373,-1.331,-1.3325,-1.3321,-1.3319,-1.3314,-1.3311,-1.3313,-1.3382,0,0,0,0,0,-1.355,-1.3528,-1.3507,-1.3479,-1.3469,-1.3455,-1.3442,-1.3437,-1.3417,-1.3409,-1.3393,-1.3373,-1.3347,-1.333,-1.3306,-1.3266,-1.3259,-1.3248,-1.3244,-1.3241,-1.3237,-1.321,-1.3204,-1.327,-1.327,-1.327,0,0,-1.3539,-1.3523,-1.351,-1.3477,-1.3462,-1.3437,-1.3449,-1.3423,-1.3403,-1.3405,-1.337,-1.3357,-1.3333,-1.3295,-1.3277,-1.3284,-1.3217,-1.3237,-1.3235,-1.3232,-1.3207,-1.32,-1.3195,-1.3268,-1.3268,-1.3269,0,0,-1.3506,-1.3493,-1.3466,-1.345,-1.3427,-1.3417,-1.3411,-1.3388,-1.3379,-1.3344,-1.3343,-1.3319,-1.3277,-1.3258,-1.3243,-1.3199,-1.3199,-1.3192,-1.3171,-1.3145,-1.314,-1.3135,-1.3116,-1.311,-1.3188,-1.3188,-1.3188,0,-1.3496,-1.3459,-1.3453,-1.3425,-1.3409,-1.3409,-1.338,-1.3364,-1.3334,-1.3322,-1.3331,-1.3274,-1.3258,-1.3213,-1.3202,-1.3191,-1.318,-1.3194,-1.3142,-1.3137,-1.3132,-1.3113,-1.3107,-1.3187,-1.3187,-1.3187,-1.3187,0,-1.3445,-1.342,-1.34,-1.337,-1.3352,-1.3324,-1.3311,-1.3294,-1.329,-1.3278,-1.324,-1.3221,-1.3191,-1.318,-1.3177,-1.3133,-1.3137,-1.3144,-1.3158,-1.3125,-1.3107,-1.31,-1.3185,-1.3186,-1.3186,-1.3186,0,0,-1.3409,-1.3373,-1.3366,-1.3351,-1.3323,-1.3302,-1.3273,-1.3243,-1.3226,-1.3205,-1.3177,-1.314,-1.3144,-1.3127,-1.3121,-1.3099,-1.306,-1.3108,-1.3107,-1.3097,-1.3006,-1.2999,-1.2991,-1.3061,-1.306,-1.3059,-1.3007,0,-1.3371,-1.3319,-1.3311,-1.3264,-1.3238,-1.3236,-1.3209,-1.3188,-1.3176,-1.3151,-1.3137,-1.3109,-1.3119,-1.3108,-1.3086,-1.307,-1.3042,-1.3074,-1.3032,-1.3031,-1.3036,-1.2983,-1.2977,-1.2929,-1.3,-1.2999,-1.2998,0,-1.332,-1.3296,-1.3247,-1.3219,-1.3208,-1.3184,-1.3154,-1.3131,-1.3106,-1.3098,-1.3077,-1.3073,-1.3039,-1.3056,-1.3007,-1.3029,-1.3011,-1.3,-1.2998,-1.2992,-1.3011,-1.2972,-1.2914,-1.2905,-1.2988,-1.2989,-1.2989,0,-1.3294,-1.325,-1.3213,-1.3201,-1.3169,-1.3151,-1.3137,-1.3113,-1.3094,-1.3067,-1.3054,-1.3024,-1.3007,-1.2982,-1.2969,-1.2983,-1.2919,-1.2936,-1.2909,-1.2909,-1.2894,-1.2895,-1.2829,-1.2888,-1.2888,-1.2888,-1.2888,0,-1.3252,-1.3221,-1.3201,-1.3178,-1.3142,-1.3132,-1.3096,-1.3081,-1.3059,-1.3031,-1.3028,-1.3002,-1.2987,-1.2958,-1.2948,-1.2906,-1.2899,-1.289,-1.2887,-1.2888,-1.2889,-1.2875,-1.2877,-1.2886,-1.2886,-1.2887,-1.2887,0,-1.3217,-1.3203,-1.3162,-1.3134,-1.3126,-1.31,-1.3075,-1.3051,-1.3039,-1.3003,-1.2995,-1.2974,-1.2939,-1.2923,-1.2881,-1.2873,-1.2824,-1.2826,-1.2833,-1.2831,-1.2804,-1.2805,-1.2724,-1.2711,-1.2781,-1.2781,-1.278,0,-1.3189,-1.3165,-1.3134,-1.3115,-1.31,-1.307,-1.305,-1.3038,-1.3017,-1.2984,-1.2963,-1.2928,-1.2899,-1.2843,-1.2823,-1.2789,-1.2787,-1.2761,-1.2782,-1.2783,-1.2782,-1.2782,-1.2778,-1.2756,-1.2756,-1.2755,-1.2755,0,-1.3141,-1.3134,-1.3106,-1.3074,-1.3051,-1.3025,-1.3,-1.2985,-1.2967,-1.2944,-1.2908,-1.2885,-1.284,-1.2804,-1.2768,-1.2751,-1.2748,-1.2748,-1.274,-1.274,-1.2743,-1.2737,-1.2819,-1.275,-1.275,-1.2751,-1.2751,-1.2751,-1.3107,-1.3083,-1.3056,-1.3024,-1.3003,-1.2979,-1.2954,-1.2937,-1.2907,-1.2869,-1.2863,-1.2824,-1.2795,-1.2746,-1.2727,-1.2694,-1.27,-1.2689,-1.2685,-1.2682,-1.2678,-1.2751,-1.2688,-1.2688,-1.2688,-1.2688,-1.2689,0,-1.3055,-1.3037,-1.3007,-1.2971,-1.2944,-1.2945,-1.2916,-1.2893,-1.2859,-1.2832,-1.2803,-1.2759,-1.2723,-1.2699,-1.2661,-1.2639,-1.2637,-1.2629,-1.263,-1.2624,-1.2677,-1.2686,-1.2632,-1.2632,-1.2632,-1.2632,-1.2632,-1.2632,-1.3025,-1.2984,-1.2973,-1.2921,-1.2902,-1.2863,-1.2846,-1.2822,-1.28,-1.2752,-1.2721,-1.2706,-1.2679,-1.2638,-1.2604,-1.2597,-1.2582,-1.2574,-1.2567,-1.2616,-1.2622,-1.2627,-1.2636,-1.2572,-1.2572,-1.2517,-1.2517,-1.2516]}]]